Change the Weather History Date:

Friday, March 14, 2014

  Actual Average (KGVT) Record (KGVT)
Temperature  
Mean Temperature 58 °F -  
Max Temperature 69 °F 63 °F 82 °F (2008)
Min Temperature 47 °F 48 °F 35 °F (2005)
Degree Days  
Heating Degree Days 7    
Growing Degree Days 8 (Base 50)    
Moisture  
Dew Point 44 °F    
Average Humidity 61    
Maximum Humidity 75    
Minimum Humidity 44    
Precipitation  
Precipitation 0.00 in - - ()
Sea Level Pressure  
Sea Level Pressure 30.07 in    
Wind  
Wind Speed 10 mph (South)    
Max Wind Speed 21 mph    
Max Gust Speed 25 mph    
Visibility 10 miles    
Events      
Averages and records for this station are not official NWS values.
T = Trace of Precipitation, MM = Missing Value Source: NWS Daily Summary

Daily Weather History Graph

Daily Weather History Graph

Search for Another Location

Airport or City:

Trip Planner

Search our weather history database for the weather conditions in past years. The results will help you decide how hot, cold, wet, or windy it might be!

Date:

Astronomy

Mar. 14, 2014 Rise Set
Actual Time 7:34 AM CDT 7:29 PM CDT
Civil Twilight 7:09 AM CDT 7:54 PM CDT
Nautical Twilight 6:40 AM CDT 8:23 PM CDT
Astronomical Twilight 6:11 AM CDT 8:52 PM CDT
Moon 5:56 PM CDT (3/14) 6:10 AM CDT (3/14)
Length of Visible Light 12h 44m
Length of Day
11h 55m
Waxing Gibbous, 96% of the Moon is Illuminated
Mar 14
Waxing Gibbous
Mar 16
Full
Mar 23
Last Quarter
Mar 30
New
Apr 7
First Quarter

Hourly Weather History & Observations

Time (CDT) Temp. Dew Point Humidity Pressure Visibility Wind Dir Wind Speed Gust Speed Precip Events Conditions
12:15 AM 52.7 °F 31.1 °F 44% 30.09 in 10.0 mi South 8.1 mph - N/A   Clear
12:35 AM 52.0 °F 31.6 °F 46% 30.09 in 10.0 mi South 10.4 mph - N/A   Clear
12:55 AM 52.3 °F 32.0 °F 46% 30.09 in 10.0 mi SSW 13.8 mph - N/A   Clear
1:15 AM 52.2 °F 32.0 °F 46% 30.09 in 10.0 mi SSW 10.4 mph - N/A   Clear
1:35 AM 51.6 °F 32.0 °F 47% 30.09 in 10.0 mi SSW 11.5 mph - N/A   Clear
1:55 AM 50.2 °F 32.0 °F 50% 30.08 in 10.0 mi SSW 9.2 mph - N/A   Clear
2:15 AM 51.1 °F 32.0 °F 48% 30.09 in 10.0 mi South 10.4 mph - N/A   Clear
2:35 AM 51.3 °F 32.0 °F 48% 30.09 in 10.0 mi South 10.4 mph - N/A   Clear
2:55 AM 51.3 °F 32.9 °F 50% 30.09 in 10.0 mi SSW 12.7 mph - N/A   Clear
3:15 AM 51.3 °F 34.0 °F 52% 30.09 in 10.0 mi South 13.8 mph - N/A   Clear
3:35 AM 50.5 °F 35.4 °F 56% 30.10 in 10.0 mi SSW 12.7 mph - N/A   Clear
3:55 AM 50.4 °F 36.5 °F 59% 30.09 in 10.0 mi SSW 10.4 mph 16.1 mph N/A   Clear
4:15 AM 50.0 °F 36.9 °F 61% 30.09 in 10.0 mi South 12.7 mph - N/A   Clear
4:35 AM 49.8 °F 37.4 °F 62% 30.09 in 10.0 mi South 10.4 mph - N/A   Clear
4:55 AM 49.6 °F 37.9 °F 64% 30.09 in 10.0 mi South 10.4 mph - N/A   Clear
5:15 AM 49.3 °F 38.5 °F 66% 30.09 in 10.0 mi South 11.5 mph - N/A   Clear
5:35 AM 49.1 °F 39.2 °F 69% 30.08 in 10.0 mi South 9.2 mph - N/A   Clear
5:55 AM 49.1 °F 39.4 °F 69% 30.08 in 10.0 mi South 9.2 mph - N/A   Clear
6:15 AM 49.1 °F 39.6 °F 70% 30.09 in 10.0 mi South 8.1 mph - N/A   Clear
6:35 AM 48.6 °F 39.7 °F 72% 30.08 in 10.0 mi South 9.2 mph - N/A   Clear
6:55 AM 48.2 °F 39.7 °F 73% 30.08 in 10.0 mi South 8.1 mph - N/A   Clear
7:15 AM 47.7 °F 39.9 °F 75% 30.08 in 10.0 mi South 9.2 mph - N/A   Clear
7:35 AM 47.7 °F 40.1 °F 75% 30.09 in 10.0 mi South 6.9 mph - N/A   Clear
7:55 AM 48.0 °F 40.3 °F 75% 30.09 in 10.0 mi South 10.4 mph - N/A   Clear
8:15 AM 48.4 °F 40.6 °F 75% 30.09 in 10.0 mi South 10.4 mph - N/A   Clear
8:35 AM 49.1 °F 41.0 °F 74% 30.10 in 10.0 mi South 6.9 mph - N/A   Clear
8:55 AM 49.5 °F 41.2 °F 73% 30.11 in 10.0 mi South 8.1 mph - N/A   Scattered Clouds
9:15 AM 50.2 °F 41.7 °F 73% 30.12 in 10.0 mi South 6.9 mph - N/A   Scattered Clouds
9:35 AM 50.9 °F 42.3 °F 72% 30.13 in 10.0 mi South 9.2 mph - N/A   Mostly Cloudy
9:55 AM 52.0 °F 42.8 °F 71% 30.14 in 10.0 mi South 8.1 mph - N/A   Overcast
10:15 AM 53.1 °F 43.7 °F 71% 30.13 in 10.0 mi South 6.9 mph - N/A   Overcast
10:35 AM 54.5 °F 44.6 °F 69% 30.13 in 10.0 mi South 6.9 mph - N/A   Overcast
10:55 AM 55.9 °F 45.3 °F 68% 30.13 in 10.0 mi South 8.1 mph - N/A   Mostly Cloudy
11:15 AM 58.1 °F 46.8 °F 66% 30.11 in 10.0 mi South 11.5 mph - N/A   Mostly Cloudy
11:35 AM 58.8 °F 47.1 °F 65% 30.10 in 10.0 mi South 15.0 mph - N/A   Mostly Cloudy
11:55 AM 61.7 °F 48.4 °F 62% 30.09 in 10.0 mi South 15.0 mph 19.6 mph N/A   Scattered Clouds
12:15 PM 63.0 °F 49.1 °F 61% 30.09 in 10.0 mi SSW 19.6 mph 25.3 mph N/A   Mostly Cloudy
12:35 PM 64.9 °F 49.8 °F 58% 30.09 in 10.0 mi SSW 16.1 mph 25.3 mph N/A   Mostly Cloudy
12:55 PM 65.1 °F 49.8 °F 58% 30.09 in 10.0 mi SSW 16.1 mph 19.6 mph N/A   Mostly Cloudy
1:15 PM 65.3 °F 49.1 °F 56% 30.08 in 10.0 mi SW 17.3 mph 24.2 mph N/A   Mostly Cloudy
1:35 PM 66.4 °F 49.5 °F 54% 30.07 in 10.0 mi SSW 15.0 mph 21.9 mph N/A   Mostly Cloudy
1:55 PM 66.2 °F 49.3 °F 54% 30.06 in 10.0 mi SW 15.0 mph 21.9 mph N/A   Mostly Cloudy
2:15 PM 67.8 °F 49.8 °F 52% 30.05 in 10.0 mi SSW 18.4 mph 21.9 mph N/A   Mostly Cloudy
2:35 PM 67.3 °F 49.5 °F 53% 30.04 in 10.0 mi SSW 20.7 mph - N/A   Mostly Cloudy
2:55 PM 67.6 °F 48.9 °F 51% 30.04 in 10.0 mi SSW 19.6 mph 24.2 mph N/A   Mostly Cloudy
3:15 PM 67.5 °F 48.9 °F 51% 30.03 in 10.0 mi SW 16.1 mph - N/A   Mostly Cloudy
3:35 PM 68.2 °F 48.7 °F 50% 30.02 in 10.0 mi SW 12.7 mph 19.6 mph N/A   Mostly Cloudy
3:55 PM 67.8 °F 48.4 °F 50% 30.02 in 10.0 mi SSW 9.2 mph 12.7 mph N/A   Mostly Cloudy
4:15 PM 68.0 °F 48.2 °F 49% 30.02 in 10.0 mi South 12.7 mph - N/A   Mostly Cloudy
4:35 PM 68.0 °F 48.7 °F 50% 30.02 in 10.0 mi SSW 16.1 mph - N/A   Overcast
4:55 PM 68.4 °F 49.1 °F 50% 30.01 in 10.0 mi SSW 12.7 mph - N/A   Mostly Cloudy
5:15 PM 69.6 °F 49.6 °F 49% 30.01 in 10.0 mi SSW 12.7 mph 16.1 mph N/A   Mostly Cloudy
5:35 PM 68.0 °F 48.9 °F 50% 30.01 in 10.0 mi South 11.5 mph - N/A   Mostly Cloudy
5:55 PM 66.7 °F 49.3 °F 53% 30.01 in 10.0 mi SSE 8.1 mph - N/A   Overcast
6:15 PM 66.9 °F 49.6 °F 54% 30.01 in 10.0 mi SSE 5.8 mph - N/A   Overcast
6:35 PM 66.6 °F 50.0 °F 55% 30.01 in 10.0 mi South 6.9 mph - N/A   Mostly Cloudy
6:55 PM 66.4 °F 50.0 °F 56% 30.02 in 10.0 mi South 6.9 mph - N/A   Overcast
7:15 PM 65.7 °F 50.0 °F 57% 30.02 in 10.0 mi South 5.8 mph - N/A   Overcast
7:35 PM 64.9 °F 50.2 °F 59% 30.02 in 10.0 mi SSE 6.9 mph - N/A   Mostly Cloudy
7:55 PM 63.9 °F 50.0 °F 61% 30.02 in 10.0 mi SSE 5.8 mph - N/A   Scattered Clouds
8:15 PM 62.8 °F 50.0 °F 63% 30.02 in 10.0 mi SSE 5.8 mph - N/A   Scattered Clouds
8:35 PM 62.2 °F 50.0 °F 64% 30.03 in 10.0 mi SE 4.6 mph - N/A   Clear
8:55 PM 61.7 °F 50.0 °F 65% 30.03 in 10.0 mi SE 4.6 mph - N/A   Clear
9:15 PM 61.2 °F 50.0 °F 67% 30.03 in 10.0 mi SE 4.6 mph - N/A   Clear
9:35 PM 60.8 °F 50.0 °F 68% 30.04 in 10.0 mi SE 5.8 mph - N/A   Clear
9:55 PM 60.1 °F 50.0 °F 69% 30.04 in 10.0 mi SE 5.8 mph - N/A   Clear
10:15 PM 60.1 °F 50.0 °F 69% 30.04 in 10.0 mi SE 5.8 mph - N/A   Clear
10:35 PM 60.8 °F 50.2 °F 68% 30.04 in 10.0 mi SE 6.9 mph - N/A   Clear
10:55 PM 60.8 °F 50.0 °F 68% 30.04 in 10.0 mi SE 5.8 mph - N/A   Clear
11:15 PM 60.3 °F 50.0 °F 69% 30.04 in 10.0 mi SE 5.8 mph - N/A   Clear
11:35 PM 59.9 °F 49.8 °F 69% 30.04 in 10.0 mi SE 4.6 mph - N/A   Clear
11:55 PM 59.4 °F 49.6 °F 70% 30.03 in 10.0 mi SE 4.6 mph - N/A   Clear